DTKA

Details ICAO DTKA (TBJ)
Name TABARKA 7 NOVEMBRE
Region Tunisia
Timezone Africa/Tunis (UTC+1.0)
Plans Departing 10
Arriving 13
Stats Elevation 230 ft / 70 m (AMSL)
Location 36.980165° 8.875125°
Runways 1
Magnetic Variation 2.217° E
Sunrise 2018-05-24 04:11:48 UTC / 2018-05-24 05:11:48 Local
Sunset 2018-05-24 18:33:44 UTC / 2018-05-24 19:33:44 Local
Advertisement - Login to hide

Runways

ID Width Length Bearing (true) Bearing (mag) Surface Threshold Offset Overrun Length
09 148 ft / 45 m 9,379 ft / 2,859 m 93.06° 90.84° Asphalt 0 ft / 0 m 230 ft / 70 m
27 148 ft / 45 m 9,379 ft / 2,859 m 273.08° 270.86° Asphalt 0 ft / 0 m 0 ft / 0 m

Approach Navaids

Runway Type Ident Frequency Range Bearing (true) Bearing (mag) Slope Elevation
27 Localiser TAB 110.70 MHz 18 nm / 33 km 273.07° 270.85° - 230 ft / 70 m (AMSL)
27 Glidescope TAB 110.70 MHz 10 nm / 19 km 273.07° 270.85° 3.00° 230 ft / 70 m (AMSL)
27 DME TAB 110.70 MHz 18 nm / 33 km - - - 252 ft / 77 m (AMSL)

Map

Weather


0- 5 10 15 20 25 30 35+ Temperature / ° C

Clouds and Precipitation
Forecast for 2018-05-24 18:00 UTC. Updated 28 minutes ago

Ground ~20,000 ft ~40,000 ft Winds

METAR

DTKA 241700Z 36006KT CAVOK 27/14 Q1015 NOSIG

TAF

Not found

Frequencies

Tower 119.25 MHz TWR
Approach 119.25 MHz APP
Warning: Do not use this data for real-world aviation or navigation. No guarantee of current accuracy is given.